Weather History for Crestview, FL

Change the Weather History Date:

Thursday, April 18, 2013

  Actual Average Record
Temperature  
Mean Temperature 69 °F -  
Max Temperature 79 °F - - ()
Min Temperature 60 °F - - ()
Cooling Degree Days 4    
Growing Degree Days 19 (Base 50)    
Moisture  
Dew Point 67 °F    
Average Humidity 83    
Maximum Humidity 97    
Minimum Humidity 69    
Precipitation  
Precipitation 0.00 in - - ()
Sea Level Pressure  
Sea Level Pressure 29.97 in    
Wind  
Wind Speed 9 mph (SE)    
Max Wind Speed 20 mph    
Max Gust Speed 26 mph    
Visibility 10 miles    
Events      
T = Trace of Precipitation, MM = Missing Value Source: NWS Daily Summary

Daily Weather History Graph

Daily Weather History Graph

Search for Another Location

Airport:

Trip Planner

Search our weather history database for the weather conditions in past years. The results will help you decide how hot, cold, wet, or windy it might be!

Date:

Astronomy

Apr. 18, 2013 Rise Set
Actual Time 6:15 AM CDT 7:16 PM CDT
Civil Twilight 5:50 AM CDT 7:41 PM CDT
Nautical Twilight 5:20 AM CDT 8:10 PM CDT
Astronomical Twilight 4:50 AM CDT 8:40 PM CDT
Moon 12:30 PM CDT (4/18) 1:25 AM CDT (4/18)
Length of Visible Light 13h 50m
Length of Day
13h 01m
First Quarter, 52% of the Moon is Illuminated
Apr 18
First Quarter
Apr 25
Full
May 2
Last Quarter
May 9
New
May 17
First Quarter

Hourly Weather History & Observations

Time (CDT) Temp. Dew Point Humidity Pressure Visibility Wind Dir Wind Speed Gust Speed Precip Events Conditions
12:58 AM 62.4 °F 61.3 °F 96% 30.05 in 10.0 mi East 1.2 mph - N/A   Clear
1:58 AM 60.4 °F 59.5 °F 97% 30.03 in 10.0 mi ENE 2.3 mph - N/A   Clear
2:58 AM 64.2 °F 61.9 °F 92% 30.01 in 10.0 mi ESE 5.8 mph - N/A   Clear
3:58 AM 65.8 °F 62.2 °F 88% 29.99 in 10.0 mi ESE 6.9 mph - N/A   Clear
4:58 AM 66.4 °F 62.8 °F 88% 29.99 in 10.0 mi SE 6.9 mph - N/A   Clear
5:58 AM 65.3 °F 63.0 °F 92% 29.98 in 10.0 mi ESE 8.1 mph - N/A   Clear
6:58 AM 65.7 °F 63.9 °F 94% 29.99 in 10.0 mi ESE 6.9 mph - N/A   Clear
7:58 AM 69.4 °F 64.9 °F 86% 30.00 in 10.0 mi SE 10.4 mph - N/A   Clear
8:55 AM 72.9 °F 64.9 °F 76% 30.01 in 10.0 mi SE 13.8 mph 19.6 mph N/A   Mostly Cloudy
9:14 AM 75.2 °F 64.4 °F 69% 30.00 in 10.0 mi SE 16.1 mph 21.9 mph N/A   Mostly Cloudy
9:55 AM 76.3 °F 66.0 °F 70% 30.02 in 10.0 mi SSE 19.6 mph 26.5 mph N/A   Mostly Cloudy
10:55 AM 76.3 °F 66.4 °F 71% 30.02 in 10.0 mi SSE 18.4 mph 25.3 mph N/A   Mostly Cloudy
11:55 AM 78.1 °F 67.1 °F 69% 30.00 in 10.0 mi SSE 17.3 mph 26.5 mph N/A   Mostly Cloudy
12:55 PM 78.1 °F 67.3 °F 69% 29.99 in 6.0 mi SE 17.3 mph - N/A   Smoke
1:55 PM 77.0 °F 67.6 °F 73% 29.97 in 7.0 mi SE 13.8 mph 20.7 mph N/A   Overcast
2:55 PM 78.3 °F 68.2 °F 71% 29.96 in 7.0 mi SSE 11.5 mph 17.3 mph N/A   Mostly Cloudy
3:55 PM 78.3 °F 69.3 °F 74% 29.95 in 7.0 mi South 17.3 mph 23.0 mph N/A   Mostly Cloudy
4:11 PM 78.8 °F 69.8 °F 74% 29.94 in 10.0 mi South 15.0 mph 21.9 mph N/A   Mostly Cloudy
4:55 PM 75.9 °F 68.7 °F 78% 29.95 in 10.0 mi South 17.3 mph - N/A   Mostly Cloudy
5:55 PM 74.5 °F 68.4 °F 81% 29.95 in 10.0 mi SSE 12.7 mph - N/A   Mostly Cloudy
6:16 PM 73.4 °F 68.0 °F 83% 29.93 in 10.0 mi SSE 10.4 mph - N/A   Mostly Cloudy
6:55 PM 72.7 °F 68.4 °F 86% 29.95 in 10.0 mi SSE 12.7 mph - N/A   Mostly Cloudy
7:43 PM 71.6 °F 68.0 °F 88% 29.95 in 10.0 mi SSE 10.4 mph - N/A   Mostly Cloudy
7:55 PM 72.1 °F 68.7 °F 89% 29.95 in 10.0 mi SSE 6.9 mph - N/A   Mostly Cloudy
8:32 PM 71.6 °F 68.0 °F 88% 29.95 in 10.0 mi SSE 9.2 mph - N/A   Overcast
8:55 PM 72.0 °F 68.9 °F 90% 29.95 in 10.0 mi SSE 6.9 mph - N/A   Overcast
9:55 PM 72.1 °F 69.3 °F 91% 29.95 in 10.0 mi SSE 8.1 mph - N/A   Overcast
10:55 PM 72.3 °F 70.0 °F 92% 29.94 in 10.0 mi SSE 9.2 mph - N/A   Overcast
11:31 PM 71.6 °F 69.8 °F 94% 29.92 in 10.0 mi SSE 10.4 mph - N/A   Overcast
11:55 PM 72.5 °F 70.7 °F 94% 29.91 in 10.0 mi SSE 9.2 mph - N/A   Overcast